Location: Aboncourt
(47.7710°N, 5.9826°E)
Time: 02:51:54
(UTC+00:00)

Cosmos 2366 rocket - Pass Details

Date: 05 July 2020
Orbit: 954 x 998 km, 82.9° (Epoch: 03 August)

Event Time Altitude Azimuth Distance (km) Brightness Sun altitude
Exits shadow 22:56:32 31° 157° (SSE) 1,688 4.7 -18.9°
Maximum altitude 22:59:33 58° 93° (E) 1,159 4.3 -19.0°
Drops below altitude 10° 23:05:45 10° 16° (NNE) 2,771 7.4 -19.1°
Sets 23:08:19 0° 13° (NNE) 3,720 8.3 -19.2°
